Weather History for Big Bear City, CA

Change the Weather History Date:

Friday, May 2, 2014

  Actual Average (KBUO) Record (KBUO)
Temperature  
Mean Temperature 50 °F -  
Max Temperature 69 °F 72 °F 84 °F (1997)
Min Temperature 30 °F 47 °F 44 °F (1997)
Degree Days  
Heating Degree Days 16    
Moisture  
Dew Point 16 °F    
Average Humidity 28    
Maximum Humidity 51    
Minimum Humidity 10    
Precipitation  
Precipitation 0.00 in - - ()
Sea Level Pressure  
Sea Level Pressure 30.30 in    
Wind  
Wind Speed 2 mph (NW)    
Max Wind Speed 12 mph    
Max Gust Speed 17 mph    
Visibility 10 miles    
Events      
Averages and records for this station are not official NWS values.
T = Trace of Precipitation, MM = Missing Value Source: NWS Daily Summary

Daily Weather History Graph

Daily Weather History Graph

Search for Another Location

Airport:

Trip Planner

Search our weather history database for the weather conditions in past years. The results will help you decide how hot, cold, wet, or windy it might be!

Date:

Astronomy

May. 02, 2014 Rise Set
Actual Time 5:56 AM PDT 7:32 PM PDT
Civil Twilight 5:29 AM PDT 7:59 PM PDT
Nautical Twilight 4:57 AM PDT 8:31 PM PDT
Astronomical Twilight 4:23 AM PDT 9:05 PM PDT
Moon 8:40 AM PDT (5/2) 10:55 PM PDT (5/2)
Length of Visible Light 14h 29m
Length of Day
13h 35m
Waxing Crescent, 13% of the Moon is Illuminated
May 2
Waxing Crescent
May 6
First Quarter
May 14
Full
May 21
Last Quarter
May 28
New

Hourly Weather History & Observations

Time (PDT) Temp. Windchill Dew Point Humidity Pressure Visibility Wind Dir Wind Speed Gust Speed Precip Events Conditions
12:15 AM 33.8 °F - 8.6 °F 35% 30.34 in 10.0 mi Calm Calm - N/A   Clear
12:35 AM 33.8 °F - 10.4 °F 38% 30.34 in 10.0 mi Calm Calm - N/A   Clear
12:55 AM 33.8 °F - 10.4 °F 38% 30.33 in 10.0 mi Calm Calm - N/A   Clear
1:15 AM 33.8 °F - 8.6 °F 35% 30.33 in 10.0 mi Calm Calm - N/A   Clear
1:35 AM 32.0 °F - 10.4 °F 41% 30.32 in 10.0 mi Calm Calm - N/A   Clear
1:55 AM 33.8 °F - 8.6 °F 35% 30.31 in 10.0 mi Calm Calm - N/A   Clear
2:15 AM 32.0 °F - 10.4 °F 41% 30.31 in 10.0 mi Calm Calm - N/A   Clear
2:35 AM 32.0 °F 28.7 °F 10.4 °F 41% 30.31 in 10.0 mi West 3.5 mph - N/A   Clear
2:55 AM 32.0 °F - 10.4 °F 41% 30.31 in 10.0 mi Calm Calm - N/A   Clear
3:15 AM 32.0 °F - 10.4 °F 41% 30.31 in 10.0 mi Calm Calm - N/A   Clear
3:35 AM 32.0 °F - 10.4 °F 41% 30.32 in 10.0 mi Calm Calm - N/A   Clear
3:55 AM 32.0 °F - 10.4 °F 41% 30.32 in 10.0 mi Calm Calm - N/A   Clear
4:15 AM 30.2 °F - 12.2 °F 47% 30.32 in 10.0 mi Calm Calm - N/A   Clear
4:35 AM 30.2 °F - 12.2 °F 47% 30.32 in 10.0 mi Calm Calm - N/A   Clear
4:55 AM 30.2 °F - 14.0 °F 51% 30.32 in 10.0 mi Calm Calm - N/A   Clear
5:15 AM 30.2 °F - 12.2 °F 47% 30.32 in 10.0 mi Calm Calm - N/A   Clear
5:35 AM 30.2 °F - 14.0 °F 51% 30.32 in 10.0 mi Calm Calm - N/A   Clear
5:55 AM 30.2 °F - 12.2 °F 47% 30.32 in 10.0 mi Calm Calm - N/A   Clear
6:15 AM 30.2 °F - 14.0 °F 51% 30.33 in 10.0 mi Calm Calm - N/A   Clear
6:35 AM 32.0 °F - 14.0 °F 48% 30.33 in 10.0 mi Calm Calm - N/A   Clear
6:55 AM 32.0 °F - 14.0 °F 48% 30.33 in 10.0 mi Calm Calm - N/A   Clear
7:15 AM 35.6 °F - 17.6 °F 48% 30.33 in 10.0 mi Calm Calm - N/A   Clear
7:35 AM 41.0 °F - 21.2 °F 45% 30.34 in 10.0 mi Calm Calm - N/A   Clear
7:55 AM 44.6 °F - 23.0 °F 43% 30.33 in 10.0 mi Calm Calm - N/A   Clear
8:15 AM 50.0 °F - 19.4 °F 30% 30.34 in 10.0 mi West 3.5 mph - N/A   Clear
8:35 AM 51.8 °F - 19.4 °F 28% 30.34 in 10.0 mi Calm Calm - N/A   Clear
8:55 AM 57.2 °F - 14.0 °F 18% 30.33 in 10.0 mi Calm Calm - N/A   Clear
9:15 AM 60.8 °F - 10.4 °F 14% 30.33 in 10.0 mi East 5.8 mph - N/A   Clear
9:35 AM 62.6 °F - 10.4 °F 13% 30.33 in 10.0 mi NE 5.8 mph - N/A   Clear
9:55 AM 62.6 °F - 8.6 °F 12% 30.33 in 10.0 mi ENE 4.6 mph - N/A   Clear
10:15 AM 64.4 °F - 10.4 °F 12% 30.34 in 10.0 mi NE 5.8 mph - N/A   Clear
10:35 AM 64.4 °F - 12.2 °F 13% 30.34 in 10.0 mi ENE 9.2 mph - N/A   Clear
10:55 AM 64.4 °F - 10.4 °F 12% 30.34 in 10.0 mi ENE 10.4 mph - N/A   Clear
11:15 AM 66.2 °F - 10.4 °F 11% 30.34 in 10.0 mi NE 3.5 mph - N/A   Clear
11:35 AM 66.2 °F - 12.2 °F 12% 30.33 in 10.0 mi NE 10.4 mph - N/A   Clear
11:55 AM 68.0 °F - 8.6 °F 10% 30.33 in 10.0 mi Calm Calm - N/A   Clear
12:15 PM 68.0 °F - 8.6 °F 10% 30.32 in 10.0 mi North 3.5 mph 17.3 mph N/A   Clear
12:35 PM 68.0 °F - 12.2 °F 12% 30.32 in 10.0 mi ENE 8.1 mph - N/A   Clear
12:55 PM 68.0 °F - 10.4 °F 11% 30.31 in 10.0 mi East 8.1 mph - N/A   Clear
1:15 PM 69.8 °F - 12.2 °F 11% 30.31 in 10.0 mi East 6.9 mph 16.1 mph N/A   Clear
1:35 PM 69.8 °F - 14.0 °F 12% 30.30 in 10.0 mi East 8.1 mph - N/A   Clear
1:55 PM 69.8 °F - 14.0 °F 12% 30.30 in 10.0 mi NNE 6.9 mph 16.1 mph N/A   Clear
2:15 PM 69.8 °F - 14.0 °F 12% 30.30 in 10.0 mi ENE 11.5 mph - N/A   Clear
2:35 PM 69.8 °F - 14.0 °F 12% 30.29 in 10.0 mi ENE 5.8 mph - N/A   Clear
2:55 PM 69.8 °F - 14.0 °F 12% 30.29 in 10.0 mi NNE 4.6 mph - N/A   Clear
3:15 PM 69.8 °F - 14.0 °F 12% 30.28 in 10.0 mi SW 4.6 mph - N/A   Clear
3:35 PM 69.8 °F - 17.6 °F 14% 30.28 in 10.0 mi NW 5.8 mph - N/A   Clear
3:55 PM 69.8 °F - 14.0 °F 12% 30.27 in 10.0 mi West 6.9 mph - N/A   Clear
4:15 PM 69.8 °F - 21.2 °F 16% 30.27 in 10.0 mi West 11.5 mph - N/A   Clear
4:35 PM 68.0 °F - 23.0 °F 18% 30.27 in 10.0 mi West 10.4 mph - N/A   Clear
4:55 PM 68.0 °F - 23.0 °F 18% 30.27 in 10.0 mi West 11.5 mph 16.1 mph N/A   Clear
5:15 PM 68.0 °F - 23.0 °F 18% 30.26 in 10.0 mi West 11.5 mph - N/A   Clear
5:35 PM 68.0 °F - 21.2 °F 17% 30.26 in 10.0 mi West 10.4 mph - N/A   Clear
5:55 PM 66.2 °F - 23.0 °F 19% 30.26 in 10.0 mi West 10.4 mph - N/A   Clear
6:15 PM 64.4 °F - 23.0 °F 21% 30.26 in 10.0 mi WSW 5.8 mph - N/A   Clear
6:35 PM 64.4 °F - 21.2 °F 19% 30.25 in 10.0 mi SSW 5.8 mph - N/A   Clear
6:55 PM 62.6 °F - 21.2 °F 20% 30.25 in 10.0 mi SW 4.6 mph - N/A   Clear
7:15 PM 60.8 °F - 21.2 °F 22% 30.25 in 10.0 mi SW 3.5 mph - N/A   Clear
7:35 PM 59.0 °F - 24.8 °F 27% 30.26 in 10.0 mi West 4.6 mph - N/A   Clear
7:55 PM 57.2 °F - 23.0 °F 27% 30.26 in 10.0 mi SW 3.5 mph - N/A   Clear
8:15 PM 53.6 °F - 21.2 °F 28% 30.26 in 10.0 mi Calm Calm - N/A   Clear
8:35 PM 51.8 °F - 21.2 °F 30% 30.27 in 10.0 mi Calm Calm - N/A   Clear
8:55 PM 50.0 °F - 21.2 °F 32% 30.27 in 10.0 mi SW 3.5 mph - N/A   Clear
9:15 PM 50.0 °F - 21.2 °F 32% 30.28 in 10.0 mi WSW 3.5 mph - N/A   Clear
9:35 PM 48.2 °F - 21.2 °F 34% 30.28 in 10.0 mi Calm Calm - N/A   Clear
9:55 PM 46.4 °F - 21.2 °F 37% 30.28 in 10.0 mi Calm Calm - N/A   Clear
10:15 PM 46.4 °F - 21.2 °F 37% 30.28 in 10.0 mi Calm Calm - N/A   Clear
10:35 PM 46.4 °F - 21.2 °F 37% 30.28 in 10.0 mi Calm Calm - N/A   Clear
10:55 PM 46.4 °F - 21.2 °F 37% 30.28 in 10.0 mi Calm Calm - N/A   Clear
11:15 PM 44.6 °F - 21.2 °F 39% 30.28 in 10.0 mi Calm Calm - N/A   Clear
11:35 PM 44.6 °F - 21.2 °F 39% 30.28 in 10.0 mi Calm Calm - N/A   Clear
11:55 PM 42.8 °F - 21.2 °F 42% 30.28 in 10.0 mi Calm Calm - N/A   Clear